TIME,DELAY(SENSOR),PRES,OXYGEN,RAWTEMP,T(OPTODE),TCPHASE,FLUOR,BETA(BETA700),BETA(BETA412),BETA(BETA440),CDOM,C(CSC),ED(ED412.40),ED(ED444.00),ED(ED489.70),ED(ED554.30),LU(LU411.80),LU(LU443.40),LU(LU489.60),LU(LU554.10),COMP,TILTX,TILTY,CHECK
1365393133,5808,846.5000000000000000,42.3382186889648440,658.0936889648438000,4.6907119750976560,54.6253814697265600,52,102,83,80,79,14936,2147756361,2147424182,2148010998,2147874102,2147636836,2147059053,2148259949,2147192310,346,4,13,25676
1365396729,5809,903.6900024414062000,45.5863304138183600,664.3355712890625000,4.4851322174072270,54.2262611389160160,53,98,86,80,80,14934,2147756589,2147424740,2148010285,2147875419,2147640603,2147057746,2148259547,2147194505,616,4,13,18191
1365400329,5809,921.5100097656250000,45.5812988281250000,664.4714965820312000,4.4806518554687500,54.2241783142089840,52,99,87,79,80,14935,2147757805,2147424246,2148009581,2147875958,2147639478,2147059885,2148264000,2147193261,414,4,13,20031
1365403929,5809,940.8300170898438000,45.9951705932617200,667.3889770507812000,4.3844108581542970,54.2026786804199200,52,99,91,81,80,14935,2147761718,2147425856,2148010413,2147873051,2147641609,2147061001,2148263780,2147194148,84,4,13,29952
1365407529,5806,944.9899902343750000,46.2149009704589840,668.1370849609375000,4.3597149848937990,54.1811904907226560,53,99,86,80,81,14935,2147758838,2147423963,2148008429,2147875282,2147641307,2147062427,2148266560,2147199552,3595,4,13,17610
1365411129,5805,944.5900268554688000,46.6185684204101560,669.2249145507812000,4.3237991333007810,54.1357498168945300,53,98,86,77,80,14936,2147755154,2147424155,2148008722,2147876077,2147642651,2147053229,2148266953,2147195602,264,4,13,28852
1365414729,5809,971.0000000000000000,48.1831512451171900,672.8922119140625000,4.2026100158691410,53.9623107910156250,51,97,87,80,80,14935,2147756589,2147424384,2148010998,2147874057,2147639771,2147053888,2148267995,2147193682,3240,4,13,56727
1365418329,5809,966.1300048828125000,48.5711212158203100,673.6229858398438000,4.1784400939941410,53.9114189147949200,52,98,87,78,80,14933,2147756196,2147424329,2148010395,2147875730,2147640960,2147057819,2148265929,2147196598,3263,4,13,34166
1365421929,5807,973.5700073242188000,48.6334991455078100,673.3972167968750000,4.1859111785888670,53.9050102233886700,53,97,86,79,80,14932,2147757705,2147425051,2148009819,2147873353,2147643913,2147059318,2148264996,2147190500,194,4,13,7419
1365425529,5807,965.8200073242188000,48.6056289672851560,674.7880249023438000,4.1399021148681640,53.9214591979980500,53,100,87,79,80,14935,2147756498,2147425664,2148008832,2147872603,2147640667,2147057974,2148267227,2147196982,2566,4,13,19535
1365429129,5809,973.0499877929688000,48.7537498474121100,673.8317871093750000,4.1715350151062010,53.8924789428710940,53,99,88,80,79,14934,2147757558,2147425563,2148011584,2147875574,2147639716,2147052598,2148264640,2147195565,808,4,13,17555
1365432729,5810,974.3800048828125000,48.4035186767578100,673.6090698242188000,4.1789040565490720,53.9374198913574200,54,101,86,79,80,14934,2147758436,2147423954,2148011355,2147873353,2147644160,2147056301,2148266806,2147191972,3506,4,13,59004
1365436329,5808,975.5200195312500000,48.3322601318359400,673.2382812500000000,4.1911640167236330,53.9422187805175800,52,100,86,80,80,14932,2147763465,2147427547,2148009618,2147869750,2147639716,2147058669,2148264521,2147194980,128,4,13,4598
1365439929,5807,983.0000000000000000,47.9731712341308600,672.5825195312500000,4.2128510475158690,53.9846916198730500,53,100,86,79,79,14932,2147758619,2147426907,2148011849,2147873764,2147640557,2147061632,2148266166,2147193353,504,4,13,64596
1365443529,5806,986.4500122070312000,47.5172691345214840,672.2926025390625000,4.2224349975585940,54.0446281433105500,53,100,88,78,80,14930,2147760100,2147424182,2148013293,2147873024,2147639954,2147059474,2148269961,2147196077,443,4,13,48866
1365447129,5812,988.0000000000000000,47.3438911437988300,671.5474853515625000,4.2470631599426270,54.0600204467773440,53,97,87,79,81,14931,2147755940,2147428598,2148009453,2147870866,2147640128,2147063003,2148261312,2147194459,82,4,13,17418
1365450729,5805,985.8800048828125000,46.9716300964355500,671.6616210937500000,4.2432918548583980,54.1141510009765600,52,98,88,79,80,14931,2147759488,2147424621,2148009298,2147873828,2147641280,2147059136,2148269814,2147195044,3482,4,13,53252
1365454329,5811,987.1199951171875000,47.1477699279785160,672.1384887695312000,4.2275300025939940,54.0982093811035160,52,102,84,79,81,14930,2147756964,2147425170,2148010514,2147873078,2147642066,2147057270,2148269814,2147192557,73,4,13,20819
1365457929,5812,988.1099853515625000,47.2641716003418000,672.1525878906250000,4.2270598411560060,54.0767593383789060,51,99,84,78,81,14930,2147759533,2147423332,2148010358,2147872530,2147642139,2147055597,2148267858,2147196699,185,4,13,17912
1365461529,5809,992.4099731445312000,47.5301589965820300,671.6428833007812000,4.2439098358154300,54.0356788635253900,53,99,88,78,80,14930,2147758281,2147425380,2148011904,2147870966,2147640146,2147059849,2148269394,2147194057,3267,4,13,1816
1365465129,5808,985.7299804687500000,47.1756515502929700,671.4390869140625000,4.2506470680236820,54.0848197937011700,52,100,90,79,81,14928,2147756544,2147424448,2148009865,2147872557,2147639725,2147054336,2148266432,2147194596,73,4,13,48166
1365468729,5809,987.3599853515625000,47.2319602966308600,671.5737304687500000,4.2462010383605960,54.0744590759277340,53,99,84,78,79,14926,2147756608,2147423433,2148013787,2147875913,2147639762,2147056329,2148268946,2147196406,40,4,13,13477
1365472329,5810,986.6199951171875000,47.1850204467773440,671.6884155273438000,4.2424092292785645,54.0855903625488300,53,99,92,80,80,14845,2147757805,2147424950,2148010285,2147874477,2147640118,2147059885,2148261293,2147191990,106,4,13,11835
1365475929,5812,994.2500000000000000,46.8491897583007800,672.2565917968750000,4.2236251831054690,54.1379814147949200,52,98,86,79,80,14841,2147753865,2147422491,2148009417,2147875456,2147640036,2147058605,2148264786,2147193289,211,4,13,58243
1365479529,5808,995.8800048828125000,47.1974792480468750,671.6806030273438000,4.2426638603210450,54.0809593200683600,53,98,87,80,81,14839,2147757897,2147425417,2148010962,2147873645,2147640438,2147056566,2148268873,2147195328,3560,4,13,13471
1365483129,5809,991.0399780273438000,47.1661796569824200,671.5911865234375000,4.2456212043762210,54.0854415893554700,53,99,86,79,79,14843,2147758180,2147424393,2148013101,2147875803,2147637769,2147054308,2148264310,2147191908,34,4,13,59804
1365486729,5807,991.3400268554688000,47.1444511413574200,672.1390991210938000,4.2275090217590330,54.0996017456054700,52,99,89,79,80,14843,2147758500,2147422866,2148009837,2147874011,2147639643,2147057737,2148266706,2147198692,3333,4,13,23844
1365490329,5806,995.8400268554688000,47.4696998596191400,671.4492797851562000,4.2503108978271480,54.0427818298339840,53,98,84,78,80,14842,2147753874,2147420562,2148012580,2147872548,2147639762,2147056274,2148263232,2147193929,357,4,13,37106
1365493929,5808,986.1599731445312000,47.0167007446289060,671.6163940429688000,4.2447872161865230,54.1077003479003900,52,100,87,79,80,14843,2147757677,2147427483,2148012470,2147873682,2147640914,2147061266,2148266432,2147196086,589,4,13,8922
1365497529,5807,982.9600219726562000,47.4822387695312500,672.3715209960938000,4.2198262214660645,54.0501594543457000,53,100,88,80,80,14840,2147756022,2147423332,2148013595,2147874889,2147639524,2147053632,2148263533,2147195547,2386,4,13,56540
1365501129,5809,984.2199707031250000,47.5755081176757800,673.5883789062500000,4.1795849800109860,54.0561599731445300,51,101,87,78,79,14842,2147757257,2147426742,2148010422,2147873142,2147641673,2147060955,2148267876,2147198235,358,4,13,22277
1365504729,5806,983.5800170898438000,48.0357704162597660,674.1679077148438000,4.1604180335998535,53.9958305358886700,52,98,87,79,80,14841,2147759899,2147422372,2148011099,2147873206,2147637193,2147051675,2148263899,2147194057,323,4,13,64779
1365508329,5811,985.5499877929688000,47.6792411804199200,673.1566772460938000,4.1938629150390625,54.0351486206054700,53,97,87,79,80,14838,2147758893,2147422180,2148011072,2147872283,2147641636,2147057563,2148268077,2147195190,60,4,13,8160
1365511929,5810,980.1400146484375000,47.7146186828613300,673.8529052734375000,4.1708369255065920,54.0346794128418000,53,102,86,78,80,14840,2147759350,2147427949,2148009737,2147872347,2147641901,2147053138,2148267465,2147195693,349,4,13,20352
1365515529,5811,986.5599975585938000,48.0523681640625000,673.6857299804688000,4.1763668060302730,53.9893302917480500,52,98,88,79,79,14838,2147761691,2147424009,2148009846,2147871506,2147639424,2147053549,2148263954,2147196306,163,4,13,8763
1365519129,5810,986.0399780273438000,48.1186599731445300,674.0120849609375000,4.1655688285827640,53.9824905395507800,52,101,81,79,82,14839,2147758710,2147426486,2148012050,2147873691,2147638308,2147053065,2148263597,2147195739,287,4,13,62112
1365522729,5808,991.7500000000000000,48.1944313049316400,674.1641235351562000,4.1605429649353030,53.9725418090820300,52,98,85,80,79,14838,2147754843,2147420909,2148012845,2147875830,2147639186,2147055716,2148261019,2147197284,130,4,13,46392
1365526329,5812,981.5300292968750000,47.8232994079589840,673.9384765625000000,4.1680049896240230,54.0245704650878900,52,99,84,78,81,14832,2147757065,2147425773,2148011684,2147872100,2147641261,2147053504,2148267062,2147194980,198,4,13,32539
1365529929,5808,992.2299804687500000,47.9940795898437500,673.6013793945312000,4.1791529655456540,53.9939918518066400,51,99,83,79,79,14839,2147757284,2147424576,2148008758,2147872539,2147637787,2147053860,2148260562,2147197741,3467,4,13,14034
1365533529,5809,989.9500122070312000,48.0382690429687500,673.7225952148438000,4.1751480102539060,53.9929389953613300,53,98,84,79,81,14838,2147756361,2147423168,2148011190,2147873124,2147639908,2147058889,2148262930,2147195273,295,4,13,65219
1365537129,5807,989.8300170898438000,47.6918907165527340,673.4686279296875000,4.1835479736328125,54.0318107604980500,52,107,84,80,80,14831,2147758710,2147421833,2148013787,2147874221,2147637677,2147055634,2148263122,2147197293,496,4,13,50934
1365538255,5807,990.8300170898438000,48.1826591491699200,673.4641113281250000,4.1836991310119630,53.9689483642578100,52,99,84,79,80,14923,2147758829,2147426806,2148011291,2147871936,2147640630,2147058084,2148262564,2147194715,3467,4,13,48398
